カタログに戻る

STARLINK-37856

運用中通信SSO
NORAD 69491·PAYLOAD·🇺🇸 United States

打ち上げ Jun 11, 2026 から Vandenberg Space Force Base

Loading…

次のパス (今後24時間)

TLE

最新Source: CelesTrak SupGP

元期: Sep 15, 2026, 02:56 UTC

1 69491C 26131P   26258.12270833 -.00043442  00000+0 -13486-2 0  2581
2 69491  97.2834 279.0837 0001148  90.2910 306.7167 15.33459541    16

AllMySatでSTARLINK-37856をリアルタイム追跡

Download on the App Store